Theta_e
321 325 324 330 336 339 343 343 342 344 345 344 341 341 340 342 343 347 343 329 325 337 337 331 330 328 327 328 329 329 329 328 328 327 326 326 326 326 327 329 332 332 322 315 316 318 318 318 319
323 326 326 325 332 332 340 341 344 343 343 343 343 342 342 343 341 344 343 329 325 336 338 332 332 331 330 329 329 329 329 328 328 327 326 326 326 327 329 332 325 315 316 317 318 318 320 322 324
325 325 325 329 331 330 334 339 341 340 341 342 345 340 339 340 339 344 335 335 328 333 338 334 333 334 334 332 330 330 330 329 327 326 325 326 326 328 331 322 315 317 317 318 319 321 324 327 328
325 325 321 327 326 328 333 340 339 341 341 341 341 341 339 337 342 342 342 342 341 326 336 337 335 334 335 335 331 331 329 328 327 326 325 326 327 329 324 316 317 318 319 320 321 322 327 329 330
324 322 325 325 324 327 340 339 339 341 342 342 342 341 341 345 343 341 335 332 332 324 332 337 337 334 334 334 331 329 328 328 327 326 326 327 328 325 317 317 318 319 320 321 321 323 326 329 330
324 320 325 325 324 323 338 339 339 338 340 342 341 339 342 340 341 341 338 330 323 323 329 335 337 336 334 332 330 329 328 327 326 326 327 328 326 321 318 318 319 320 321 325 327 328 329 331 331
324 325 324 323 323 324 334 338 338 338 341 342 341 343 342 340 343 342 335 328 323 324 326 331 333 332 330 329 328 328 327 326 326 326 327 327 323 319 318 318 319 322 327 329 329 330 331 331 331
322 324 323 322 324 324 331 338 338 338 339 342 343 344 344 340 344 341 333 328 326 326 326 326 327 327 328 328 328 327 326 326 326 327 327 324 321 319 318 320 322 324 329 330 332 332 332 332 332
321 324 326 324 322 325 336 337 337 338 339 341 340 342 342 340 343 338 335 330 330 329 330 330 329 329 329 328 327 326 326 326 327 327 325 322 321 319 320 324 327 329 330 330 331 331 332 332 332
322 323 324 322 322 327 330 335 336 338 339 340 340 340 340 339 342 337 335 335 332 332 331 329 329 328 328 327 326 325 325 326 327 325 322 320 319 318 322 325 328 328 329 330 331 331 331 332 333
320 322 321 322 321 323 325 334 337 339 339 340 340 341 340 340 342 341 340 339 338 338 334 333 330 326 326 326 325 325 326 327 325 323 320 318 318 323 322 326 328 329 330 331 332 333 333 331 327
321 320 321 322 320 321 326 333 337 338 337 337 340 339 340 340 340 337 338 339 340 341 337 334 329 326 325 325 325 326 327 326 324 322 319 322 323 325 330 333 330 331 332 333 332 329 327 330 332
320 321 319 320 320 320 326 329 330 336 336 337 337 340 340 341 339 338 339 338 341 341 341 334 332 327 326 326 326 327 325 324 324 322 319 327 330 330 331 331 331 332 332 330 330 333 333 331 328
319 319 321 321 321 318 322 326 333 333 332 336 337 339 339 341 337 337 339 339 338 339 340 336 333 327 327 327 327 325 324 324 323 322 319 322 326 329 331 332 333 331 331 333 334 332 329 326 323
319 322 322 322 321 327 328 331 333 332 334 337 337 339 336 337 339 335 335 338 336 337 339 339 336 330 329 329 327 325 325 327 325 321 321 321 325 330 333 333 331 332 334 333 331 328 325 321 316
321 321 323 323 321 331 328 325 327 329 333 334 337 337 340 337 340 335 335 336 338 338 338 340 340 337 330 331 327 329 329 331 329 324 326 329 331 332 333 332 333 333 332 330 326 324 320 315 310
321 321 323 324 323 333 330 327 327 323 329 333 335 337 338 340 339 339 337 337 337 338 338 340 342 339 337 331 333 329 331 337 334 329 329 331 332 333 333 333 333 333 329 326 323 320 315 311 310
321 323 323 324 322 322 324 326 326 324 321 323 331 336 338 340 340 340 338 337 337 337 338 337 337 338 340 335 334 335 334 338 338 335 335 335 334 333 333 333 333 328 325 322 320 315 311 309 308
322 323 323 323 323 322 325 325 325 327 329 325 330 334 337 339 340 340 338 337 337 338 338 337 336 336 338 339 337 337 338 339 339 338 337 335 334 334 333 333 331 325 323 321 314 311 310 308 309
322 323 323 323 322 323 326 326 325 334 332 332 333 335 336 339 337 338 338 338 338 338 338 338 336 334 336 340 340 340 339 339 338 336 334 334 335 333 333 331 326 323 319 313 312 310 308 309 310
322 322 322 322 323 324 322 326 326 332 339 336 334 333 335 338 339 337 337 338 338 338 337 334 334 335 338 339 339 339 337 335 335 335 335 335 334 334 329 326 322 315 311 311 309 306 304 309 310
322 321 322 323 324 325 323 326 328 327 335 340 337 337 336 338 340 337 337 337 337 336 335 336 337 337 338 338 337 336 337 337 337 335 336 335 333 327 325 318 311 310 309 306 303 303 305 306 309
322 321 322 323 324 324 325 325 327 333 329 330 340 340 339 340 339 338 337 336 337 337 337 336 337 338 338 338 338 338 339 340 338 336 333 328 326 320 312 311 309 304 302 302 304 306 307 307 308
321 323 322 322 324 326 326 325 326 327 331 335 340 340 340 339 339 339 337 337 339 340 339 339 339 340 339 340 340 341 341 336 330 328 327 323 314 313 310 305 302 302 302 304 305 306 306 306 305
322 324 326 326 326 326 323 324 326 328 327 333 333 336 340 338 338 336 336 337 338 339 339 338 340 340 340 341 341 339 331 328 328 325 317 315 314 308 305 302 301 301 302 303 304 304 303 301 302
323 325 326 326 326 325 323 326 326 328 331 337 337 336 338 338 338 336 336 335 336 336 336 339 339 340 339 339 333 328 328 328 322 316 317 313 309 306 303 302 302 302 302 303 304 303 304 304 305
322 324 324 326 323 325 325 326 326 331 336 338 338 338 338 338 337 337 337 336 337 337 337 337 337 335 333 329 328 328 326 319 318 317 314 313 308 304 303 302 302 303 304 304 304 304 305 305 305
323 323 325 325 327 327 326 326 326 330 330 333 340 339 338 338 337 336 335 336 336 335 335 336 332 330 327 327 327 323 319 320 319 316 314 312 305 304 303 304 303 303 304 305 305 305 305 306 306
321 322 323 325 326 326 327 326 329 331 331 332 332 338 339 337 337 334 336 336 334 334 336 330 328 326 327 327 323 320 319 320 318 316 314 307 304 304 305 305 305 305 305 305 305 306 306 306 306
321 322 325 323 324 326 326 326 327 327 327 326 330 337 339 338 335 336 333 332 334 336 329 327 326 326 326 324 321 320 319 319 318 314 308 305 305 305 306 306 306 305 305 305 305 306 306 306 306
Wind_Speed
7 7 5 2 2 1 3 3 2 4 3 2 6 6 6 2 3 3 4 22 26 26 25 23 21 19 18 17 14 13 12 11 10 8 8 7 7 7 7 7 8 8 8 10 12 11 10 9 8
7 7 3 1 2 1 3 1 3 2 0 1 5 6 5 3 4 2 13 22 23 26 27 25 23 20 18 16 14 13 11 10 9 8 7 7 7 7 7 7 7 10 12 11 11 10 8 6 4
6 5 2 2 2 3 0 4 2 1 3 5 4 2 2 3 5 14 21 19 22 25 26 25 23 20 18 16 15 13 12 10 9 8 7 7 6 6 6 6 10 11 11 10 9 7 5 3 1
7 2 4 2 5 1 2 3 5 3 5 3 6 4 1 6 14 15 16 17 22 23 25 25 23 21 19 16 15 14 12 11 9 8 7 6 6 5 6 9 10 10 9 8 6 4 4 3 3
6 2 2 1 2 2 3 4 6 5 1 2 7 7 6 15 15 15 15 18 20 22 23 24 22 20 18 16 15 14 12 10 9 8 8 7 6 7 9 10 9 8 7 5 5 6 7 7 6
2 1 1 3 4 2 4 7 6 4 3 2 3 10 8 8 13 17 16 17 18 19 22 23 21 18 17 15 14 13 12 10 9 8 7 7 7 9 10 9 9 7 6 7 8 8 9 10 12
1 0 0 2 3 3 2 5 10 2 4 5 7 4 2 13 16 15 16 18 18 19 20 21 19 17 16 15 14 13 12 11 10 9 8 8 9 10 10 9 9 9 9 9 9 10 12 14 16
3 1 3 2 2 3 2 3 6 3 2 4 8 2 3 15 20 17 19 19 18 18 18 18 17 17 16 16 15 13 12 12 10 10 9 10 11 11 11 11 11 11 11 12 13 14 16 18 20
5 3 4 3 5 1 2 4 3 3 5 4 5 2 7 23 21 19 20 20 19 19 17 16 17 17 17 16 14 14 13 12 11 11 11 11 11 12 12 12 12 12 13 14 16 19 21 22 24
5 4 6 3 5 4 3 6 6 4 6 7 8 3 12 24 23 23 23 22 20 19 18 17 17 17 16 16 15 14 13 13 12 12 11 11 12 13 13 15 13 14 15 17 20 22 23 25 27
4 5 5 4 10 6 4 5 6 6 10 5 13 16 21 25 24 21 19 17 16 16 17 15 16 16 16 17 16 15 14 13 13 12 12 12 13 13 15 15 16 17 17 18 19 22 24 27 28
4 8 6 5 6 5 5 3 5 13 5 4 9 12 19 22 24 21 22 23 22 19 14 14 16 16 16 17 16 15 14 14 13 14 13 13 14 15 15 15 15 16 17 19 21 23 25 29 32
6 4 6 12 11 10 6 11 10 16 17 8 4 11 18 21 22 23 23 23 23 19 18 15 15 17 18 18 16 14 14 15 15 15 15 16 15 15 15 15 15 16 17 19 22 26 29 30 30
2 5 11 9 12 6 5 6 5 8 15 19 14 14 15 19 25 27 28 27 23 19 20 17 15 18 18 16 17 16 16 15 15 16 18 17 17 16 16 16 16 15 20 22 26 28 28 27 25
2 5 6 7 3 3 6 5 10 12 2 13 22 17 15 21 26 29 27 30 21 21 22 21 19 19 19 18 18 18 17 17 17 18 18 18 18 17 16 17 16 21 22 25 24 24 24 25 25
1 2 5 3 1 1 4 6 9 7 14 17 18 25 22 24 28 29 28 29 26 24 23 24 23 23 22 21 20 20 18 19 19 19 19 19 19 18 19 18 21 21 23 22 21 22 24 25 24
0 7 5 2 4 4 3 9 16 5 6 18 24 24 26 25 31 32 31 28 28 25 23 24 27 25 24 24 22 23 22 20 19 21 21 21 20 19 18 20 22 24 20 20 20 23 24 24 21
5 3 2 5 4 3 6 15 17 16 15 23 26 24 24 25 23 29 31 29 28 26 25 24 26 29 27 26 26 24 24 23 21 21 21 20 18 17 19 21 22 19 19 20 22 23 23 23 21
1 2 6 7 7 5 6 12 15 13 11 13 21 26 22 24 20 30 32 29 29 27 28 29 29 29 30 29 28 27 25 23 21 20 20 18 16 19 21 19 20 18 20 22 23 22 22 21 18
3 4 9 11 4 5 9 15 11 6 4 5 12 18 19 18 26 29 29 29 28 26 25 25 23 23 27 27 25 25 23 21 19 18 17 16 20 19 18 19 19 20 21 22 21 23 21 16 13
6 6 8 9 8 5 6 7 5 1 4 2 7 14 15 20 23 27 26 28 25 22 21 17 15 18 23 22 21 19 17 16 16 16 16 19 17 17 17 18 19 20 20 19 22 22 18 12 11
8 6 9 7 3 4 2 5 3 5 10 5 9 11 14 17 18 22 22 21 20 19 15 12 14 15 16 15 15 14 13 14 15 14 17 15 15 15 17 18 19 19 20 20 18 15 13 14 11
7 5 5 5 5 3 4 5 3 2 6 6 7 10 12 14 16 19 20 20 19 18 17 16 15 15 16 15 16 15 14 14 15 11 11 11 13 15 16 17 18 18 16 14 12 12 13 14 14
2 3 1 1 3 6 4 5 4 4 4 4 4 5 9 12 14 16 19 21 20 20 19 17 15 17 16 16 16 14 13 10 7 8 9 11 12 14 15 15 15 13 12 11 11 11 12 13 14
4 3 3 5 6 7 1 4 7 9 7 8 10 10 10 13 16 20 23 24 22 19 17 15 17 17 15 16 14 12 9 7 6 7 8 10 12 13 14 13 13 12 12 12 11 11 12 12 12
6 6 5 7 6 5 3 4 3 5 7 10 12 12 12 14 17 20 24 25 22 19 18 17 15 14 14 12 10 9 7 5 6 7 7 10 12 13 15 14 13 13 12 10 10 10 11 11 13
5 7 2 2 2 4 4 4 10 9 12 11 7 7 13 17 20 21 25 26 23 23 18 15 14 15 13 11 9 7 6 6 5 6 9 13 14 15 14 12 12 11 10 10 10 11 12 13 16
5 8 3 2 5 8 5 4 6 7 11 7 10 13 14 16 18 21 25 28 25 21 19 17 16 14 12 9 8 8 6 4 6 9 12 15 15 13 11 11 11 11 11 11 12 12 15 17 18
5 5 1 2 2 6 8 6 6 11 11 12 11 13 15 19 20 22 25 26 25 22 19 18 16 13 11 9 8 6 4 6 8 12 15 14 11 11 10 10 12 13 13 12 14 15 17 20 23
8 12 8 6 5 2 3 7 5 9 11 13 18 10 14 19 21 22 22 26 26 22 20 17 15 12 11 9 6 4 6 8 11 14 13 11 10 10 12 13 15 16 14 13 16 19 21 25 28
Wind_Direction
356 2 346 13 228 244 82 122 316 202 202 168 159 185 189 137 206 311 195 166 169 173 172 168 166 165 163 165 165 167 165 161 154 148 142 139 138 131 128 118 114 110 110 112 111 109 101 93 84
1 6 347 343 321 98 72 234 213 205 247 347 142 151 166 159 192 262 148 161 169 175 175 173 170 170 170 172 176 178 176 170 163 161 159 153 149 143 129 121 118 120 121 121 117 110 105 101 96
358 18 332 30 73 21 90 217 239 278 248 202 175 83 146 154 163 152 153 165 167 176 178 177 175 176 178 180 182 186 184 181 179 175 169 163 154 141 130 131 129 130 130 128 125 123 124 132 146
0 21 45 356 15 94 270 296 223 227 207 196 161 154 197 187 153 153 165 174 179 179 181 181 181 184 186 186 189 192 194 193 191 181 176 172 159 151 149 144 141 142 142 142 144 158 196 223 240
348 40 10 9 341 282 249 235 214 229 285 208 192 157 157 142 154 160 163 167 177 181 183 184 187 188 190 193 195 200 201 199 196 188 186 179 172 169 162 156 154 160 166 171 193 219 237 250 269
7 72 332 341 342 301 257 210 238 209 190 108 220 162 149 178 169 161 168 172 174 181 182 186 188 191 196 199 204 205 205 203 200 197 193 188 187 180 173 169 174 183 198 214 228 241 254 268 280
195 270 328 292 302 297 257 206 238 278 163 182 178 194 255 164 163 163 170 175 176 181 183 185 187 192 199 204 207 208 209 207 206 204 202 201 195 188 186 188 195 209 224 238 250 262 274 284 292
150 147 171 236 305 279 252 234 259 243 203 146 160 252 205 186 166 169 174 177 178 182 185 184 189 195 201 204 207 211 211 210 211 212 212 210 203 199 200 203 217 228 242 257 270 279 289 297 300
169 195 233 217 199 269 239 261 236 211 193 186 171 245 268 174 167 168 174 181 182 187 189 192 195 199 204 207 208 209 211 215 220 222 220 217 213 211 213 221 232 244 259 273 283 292 297 302 304
203 216 212 224 206 256 269 247 288 255 201 220 155 135 167 173 175 175 177 180 188 193 195 197 201 203 207 208 210 213 216 219 225 227 227 224 222 220 227 236 244 259 273 285 291 295 298 300 301
182 227 209 233 226 258 283 254 235 260 274 208 183 165 171 180 183 187 190 193 196 196 198 199 202 204 208 212 212 215 219 225 230 231 232 232 232 233 238 247 260 271 282 289 295 298 298 299 302
224 233 207 253 249 221 246 239 248 231 239 80 154 183 181 191 192 196 201 204 204 204 202 200 202 207 211 218 218 221 226 229 233 237 235 237 238 243 252 261 271 278 286 291 297 302 306 307 306
229 264 213 253 272 253 260 250 253 256 235 222 145 185 202 211 211 210 208 211 213 213 215 215 211 207 213 216 220 222 229 233 237 240 241 239 244 255 260 269 277 284 290 298 303 304 306 310 310
274 256 277 277 266 239 255 267 205 261 250 235 231 207 213 219 212 218 219 215 214 214 222 222 219 213 220 224 221 221 227 237 243 245 246 247 253 260 266 273 279 286 296 299 303 307 310 310 309
301 284 290 230 232 233 182 234 230 234 281 234 229 230 227 228 218 217 220 225 211 220 225 223 225 225 223 226 228 226 233 240 246 248 249 251 257 265 272 278 286 293 292 297 306 311 313 314 316
241 237 242 132 192 145 239 258 272 249 231 239 238 233 234 238 225 224 224 230 230 230 234 236 234 234 231 228 229 232 235 245 248 250 253 256 261 268 276 282 292 291 299 304 312 317 319 317 318
24 237 219 225 43 141 267 290 278 286 246 246 234 233 231 232 230 228 231 233 237 241 248 241 242 245 240 233 233 235 240 247 250 251 254 256 259 266 270 284 288 296 302 308 316 321 319 320 323
222 218 229 248 174 300 269 267 284 293 280 252 241 227 224 229 228 229 235 239 240 244 248 244 246 245 241 237 235 236 238 245 246 248 250 254 257 272 278 283 295 305 310 316 317 315 319 325 327
219 260 280 275 271 279 269 278 283 311 295 241 231 222 220 226 220 227 232 238 241 245 251 252 250 250 239 237 232 234 239 243 243 246 248 250 269 276 278 292 303 308 312 310 311 321 324 329 330
212 271 279 291 238 268 302 290 288 269 272 251 239 231 223 215 224 227 230 238 242 248 249 254 254 247 236 235 239 238 242 240 241 241 246 259 276 277 291 301 305 307 306 311 319 322 325 328 336
246 257 267 269 313 263 294 264 246 237 304 301 250 240 230 220 224 229 229 233 239 238 240 245 244 230 227 233 234 231 228 225 231 244 261 277 279 290 293 301 302 303 311 312 315 319 325 326 336
277 225 262 266 285 286 15 285 268 328 304 210 216 227 229 219 215 223 220 222 219 218 217 211 207 208 213 219 222 229 236 238 252 262 274 274 276 287 297 299 303 307 309 308 312 322 328 332 329
252 184 272 280 239 272 202 245 268 301 298 307 215 212 222 214 211 209 207 201 197 191 191 190 198 203 208 219 217 227 241 252 269 252 256 270 288 294 299 306 307 308 308 311 320 326 329 329 329
131 215 193 135 189 235 227 248 255 299 297 284 50 214 214 204 196 193 197 190 181 173 177 186 198 207 213 219 225 232 243 251 238 244 269 284 296 303 308 310 311 313 318 326 330 330 330 332 327
186 266 260 221 214 255 52 235 262 267 264 260 307 288 226 205 193 191 193 185 180 179 182 189 197 208 212 218 223 226 220 218 243 271 279 294 306 309 313 318 323 327 332 334 335 335 341 346 353
195 208 233 247 248 270 157 237 241 263 267 277 296 274 216 200 195 195 194 189 186 188 196 199 206 206 204 198 199 201 208 232 254 266 293 312 318 321 326 333 335 333 332 335 341 354 354 354 349
163 215 318 182 61 263 272 264 271 251 269 256 260 208 202 198 195 191 194 191 189 195 198 205 203 195 187 187 193 205 222 234 266 304 321 324 324 329 328 332 333 334 333 333 339 338 339 336 333
230 144 191 186 239 249 223 256 259 280 282 261 240 230 213 200 192 190 196 192 196 200 204 202 191 189 186 188 199 211 225 270 313 325 322 321 318 318 322 328 336 334 332 327 328 324 320 319 316
183 204 141 265 261 265 264 256 221 262 288 287 286 244 213 197 193 194 199 196 199 201 199 193 187 192 192 200 210 221 269 313 321 314 312 309 313 317 318 324 331 332 329 325 320 318 312 308 310
247 246 211 244 231 226 283 258 240 258 281 282 286 236 212 201 195 196 187 189 193 195 193 191 194 199 200 207 215 253 296 312 307 305 307 310 314 317 318 320 320 322 320 319 319 316 312 310 309